Location: Young's Pond
(41.2695°N, 72.7766°W)
Time: 01:16:32
(UTC-04:00)

Spot 4 - Visible Passes

Search period start: 30 June 2015 00:00
Search period end: 10 July 2015 00:00
Orbit: 706 x 723 km, 98.4° (Epoch: 29 June)

Date Brightness Start Highest point End Pass type
(mag) Time Alt. Az. Time Alt. Az. Time Alt. Az.
30 Jun 5.7 21:19:06 10° ESE 21:22:01 17° ENE 21:25:08 10° NNE visible
30 Jun 4.2 22:57:38 33° SSW 22:59:35 57° W 23:04:22 10° NNW visible
01 Jul 4.4 22:05:39 23° SE 22:08:17 44° ENE 22:12:53 10° N visible
01 Jul 5.7 23:44:48 17° WSW 23:46:32 20° W 23:49:59 10° NW visible
02 Jul 5.8 21:14:41 10° E 21:17:19 15° ENE 21:20:07 10° NNE visible
02 Jul 4.1 22:52:50 34° S 22:54:49 64° WSW 22:59:38 10° NNW visible
03 Jul 4.6 22:00:52 21° SE 22:03:32 39° ENE 22:08:04 10° N visible
03 Jul 5.6 23:40:01 19° WSW 23:41:42 22° W 23:45:24 10° NW visible
04 Jul 5.9 21:10:20 10° E 21:12:36 14° ENE 21:15:04 10° NNE visible
04 Jul 3.9 22:48:02 35° S 22:50:03 72° W 22:54:54 10° NNW visible
05 Jul 4.7 21:56:04 19° ESE 21:58:48 35° ENE 22:03:13 10° N visible
05 Jul 5.5 23:35:13 21° SW 23:36:53 25° W 23:40:48 10° NW visible
06 Jul 6.0 21:06:04 10° E 21:07:53 12° ENE 21:09:56 10° NE visible
06 Jul 3.8 22:43:15 36° S 22:45:17 81° WSW 22:50:09 10° NNW visible
07 Jul 4.9 21:51:17 18° ESE 21:54:04 32° ENE 21:58:23 10° N visible
07 Jul 5.3 23:30:26 23° SW 23:32:05 28° W 23:36:11 10° NW visible
08 Jul 6.0 21:01:59 10° ENE 21:03:11 11° ENE 21:04:39 10° NE visible
08 Jul 3.8 22:38:28 36° SSE 22:40:31 90° WNW 22:45:24 10° NNW visible
09 Jul 5.0 21:46:31 17° ESE 21:49:20 29° ENE 21:53:31 10° N visible
09 Jul 5.2 23:25:39 25° SW 23:27:16 31° W 23:31:32 10° NW visible
